When you browse on this site, cookies collect data to enhance your experience and personalize the content and advertising you see.
Visit our Privacy Policy to learn more. By continuing to use the site, you agree to this use of cookies and data.
  • En Estados Unidos
  • Lista de países
  • Para 7 días
  • Temperatura del agua
  • Mapa Satelital
  • El tiempo en el mapa
  • Informadores
  • user-avatar
    Iniciar sesión

    Tiempo cada hora Batina

    Hoy, 12 Diciembre, Miércoles

    Tiempo Temperatura Precipitaciones Viento Presión Humedad
    00:00 +7°C° 0 mm 1 mps 672 mmHg 57%
    01:00 +7°C° 0 mm 1 mps 672 mmHg 58%
    02:00 +7°C° 0 mm 1 mps 671 mmHg 59%
    03:00 +6°C° 0 mm 1 mps 671 mmHg 59%
    04:00 +6°C° 0 mm 1 mps 671 mmHg 60%
    05:00 +6°C° 0 mm 1 mps 671 mmHg 62%
    06:00 +4°C° 0 mm 0 mps 671 mmHg 63%
    07:00 +6°C° 0 mm 0 mps 672 mmHg 55%
    08:00 +8°C° 0 mm 0 mps 672 mmHg 47%
    09:00 +11°C° 0 mm 0 mps 673 mmHg 40%
    10:00 +12°C° 0 mm 1 mps 673 mmHg 37%
    11:00 +13°C° 0 mm 1 mps 673 mmHg 34%
    12:00 +14°C° 0 mm 2 mps 673 mmHg 31%
    13:00 +14°C° 0 mm 2 mps 673 mmHg 31%
    14:00 +14°C° 0 mm 2 mps 673 mmHg 31%
    15:00 +14°C° 0 mm 2 mps 672 mmHg 32%
    16:00 +13°C° 0 mm 2 mps 672 mmHg 38%
    17:00 +11°C° 0 mm 1 mps 672 mmHg 44%
    18:00 +9°C° 0 mm 1 mps 671 mmHg 50%
    19:00 +9°C° 0 mm 1 mps 671 mmHg 52%
    20:00 +7°C° 0 mm 0 mps 671 mmHg 54%
    21:00 +7°C° 0 mm 0 mps 671 mmHg 57%
    22:00 +6°C° 0 mm 0 mps 671 mmHg 57%
    23:00 +6°C° 0 mm 0 mps 671 mmHg 57%

    Mañana, 13 Diciembre, Jueves

    Tiempo Temperatura Precipitaciones Viento Presión Humedad
    00:00 +7°C° 0 mm 1 mps 670 mmHg 58%
    01:00 +7°C° 0 mm 1 mps 670 mmHg 58%
    02:00 +6°C° 0 mm 1 mps 670 mmHg 58%
    03:00 +6°C° 0 mm 1 mps 669 mmHg 58%
    04:00 +6°C° 0 mm 1 mps 669 mmHg 58%
    05:00 +6°C° 0 mm 1 mps 669 mmHg 59%
    06:00 +6°C° 0 mm 1 mps 669 mmHg 59%
    07:00 +7°C° 0 mm 2 mps 669 mmHg 55%
    08:00 +8°C° 0 mm 2 mps 670 mmHg 51%
    09:00 +10°C° 0 mm 2 mps 670 mmHg 46%
    10:00 +11°C° 0 mm 3 mps 670 mmHg 44%
    11:00 +12°C° 0 mm 4 mps 669 mmHg 42%
    12:00 +13°C° 0 mm 5 mps 669 mmHg 40%
    13:00 +12°C° 0 mm 5 mps 668 mmHg 41%
    14:00 +12°C° 0 mm 5 mps 668 mmHg 42%
    15:00 +12°C° 0 mm 5 mps 667 mmHg 44%
    16:00 +11°C° 0 mm 4 mps 667 mmHg 47%
    17:00 +10°C° 0 mm 4 mps 667 mmHg 51%
    18:00 +9°C° 0 mm 3 mps 666 mmHg 54%
    19:00 +8°C° 0.1 mm 4 mps 666 mmHg 55%
    20:00 +8°C° 0.1 mm 4 mps 666 mmHg 56%
    21:00 +8°C° 0.1 mm 4 mps 665 mmHg 57%
    22:00 +7°C° 0.3 mm 5 mps 665 mmHg 61%
    23:00 +7°C° 0.3 mm 6 mps 665 mmHg 65%

    Pasado mañana, 14 Diciembre, Viernes

    Tiempo Temperatura Precipitaciones Viento Presión Humedad
    00:00 +5°C° 0.3 mm 6 mps 664 mmHg 69%
    01:00 +4°C° 0.1 mm 6 mps 664 mmHg 67%
    02:00 +3°C° 0.1 mm 6 mps 663 mmHg 65%
    03:00 +2°C° 0.1 mm 6 mps 662 mmHg 63%
    04:00 +2°C° 0.8 mm 6 mps 662 mmHg 67%
    05:00 +2°C° 0.8 mm 7 mps 661 mmHg 71%
    06:00 +1°C° 0.8 mm 8 mps 661 mmHg 75%
    07:00 +1°C° 0.5 mm 8 mps 661 mmHg 76%
    08:00 +2°C° 0.5 mm 9 mps 662 mmHg 77%
    09:00 +2°C° 0.5 mm 9 mps 662 mmHg 78%
    10:00 +4°C° 0 mm 8 mps 662 mmHg 74%
    11:00 +5°C° 0 mm 8 mps 663 mmHg 71%
    12:00 +6°C° 0 mm 7 mps 663 mmHg 67%
    13:00 +6°C° 0.6 mm 9 mps 663 mmHg 71%
    14:00 +6°C° 0.6 mm 11 mps 664 mmHg 76%
    15:00 +4°C° 0.6 mm 13 mps 664 mmHg 80%
    16:00 +4°C° 0.2 mm 14 mps 665 mmHg 80%
    17:00 +4°C° 0.2 mm 16 mps 665 mmHg 80%
    18:00 +2°C° 0.2 mm 17 mps 666 mmHg 80%
    19:00 +2°C° 0.1 mm 17 mps 667 mmHg 79%
    20:00 +2°C° 0.1 mm 16 mps 667 mmHg 78%
    21:00 +2°C° 0.1 mm 16 mps 668 mmHg 78%
    22:00 +2°C° 0.1 mm 15 mps 669 mmHg 78%
    23:00 +3°C° 0.1 mm 14 mps 669 mmHg 79%

    15 Diciembre, Sábado

    Tiempo Temperatura Precipitaciones Viento Presión Humedad
    00:00 +1°C° 0.1 mm 13 mps 669 mmHg 79%
    01:00 +3°C° 0.1 mm 13 mps 670 mmHg 80%
    02:00 +3°C° 0.1 mm 12 mps 670 mmHg 80%
    03:00 +3°C° 0.1 mm 12 mps 670 mmHg 80%
    04:00 +2°C° 0 mm 11 mps 671 mmHg 81%
    05:00 +2°C° 0 mm 10 mps 671 mmHg 81%
    06:00 +2°C° 0 mm 9 mps 671 mmHg 82%
    07:00 +2°C° 0 mm 9 mps 672 mmHg 80%
    08:00 +4°C° 0 mm 8 mps 673 mmHg 78%
    09:00 +4°C° 0 mm 8 mps 673 mmHg 75%
    10:00 +5°C° 0 mm 7 mps 674 mmHg 72%
    11:00 +5°C° 0 mm 7 mps 674 mmHg 68%
    12:00 +7°C° 0 mm 6 mps 674 mmHg 65%
    13:00 +7°C° 0 mm 6 mps 674 mmHg 64%
    14:00 +7°C° 0 mm 6 mps 674 mmHg 64%
    15:00 +7°C° 0 mm 5 mps 674 mmHg 64%
    16:00 +6°C° 0 mm 4 mps 674 mmHg 69%
    17:00 +5°C° 0 mm 3 mps 674 mmHg 74%
    18:00 +6°C° 0 mm 2 mps 674 mmHg 79%
    19:00 +5°C° 0 mm 2 mps 674 mmHg 80%
    20:00 +5°C° 0 mm 2 mps 674 mmHg 82%
    21:00 +5°C° 0 mm 2 mps 675 mmHg 83%
    22:00 +4°C° 0 mm 2 mps 675 mmHg 82%
    23:00 +4°C° 0 mm 2 mps 675 mmHg 81%

    16 Diciembre, Domingo

    Tiempo Temperatura Precipitaciones Viento Presión Humedad
    00:00 +4°C° 0 mm 2 mps 675 mmHg 81%
    01:00 +4°C° 0 mm 2 mps 674 mmHg 79%
    02:00 +4°C° 0 mm 2 mps 674 mmHg 77%
    03:00 +4°C° 0 mm 2 mps 674 mmHg 76%
    04:00 +4°C° 0 mm 2 mps 674 mmHg 76%
    05:00 +5°C° 0 mm 1 mps 675 mmHg 76%
    06:00 +5°C° 0 mm 1 mps 675 mmHg 76%
    07:00 +7°C° 0 mm 1 mps 675 mmHg 68%
    08:00 +9°C° 0 mm 1 mps 676 mmHg 61%
    09:00 +11°C° 0 mm 1 mps 677 mmHg 53%
    10:00 +12°C° 0 mm 1 mps 677 mmHg 49%
    11:00 +13°C° 0 mm 1 mps 677 mmHg 44%
    12:00 +14°C° 0 mm 2 mps 677 mmHg 40%
    13:00 +15°C° 0 mm 2 mps 677 mmHg 41%
    14:00 +15°C° 0 mm 2 mps 677 mmHg 42%
    15:00 +15°C° 0 mm 2 mps 677 mmHg 43%
    16:00 +14°C° 0 mm 1 mps 676 mmHg 49%
    17:00 +12°C° 0 mm 1 mps 676 mmHg 55%
    18:00 +9°C° 0 mm 0 mps 676 mmHg 62%
    19:00 +10°C° 0 mm 1 mps 676 mmHg 62%
    20:00 +10°C° 0 mm 1 mps 676 mmHg 63%
    21:00 +10°C° 0 mm 1 mps 676 mmHg 64%
    22:00 +10°C° 0 mm 1 mps 676 mmHg 64%
    23:00 +9°C° 0 mm 1 mps 676 mmHg 64%

    17 Diciembre, Lunes

    Tiempo Temperatura Precipitaciones Viento Presión Humedad
    00:00 +9°C° 0 mm 1 mps 676 mmHg 65%
    01:00 +9°C° 0 mm 1 mps 675 mmHg 65%
    02:00 +8°C° 0 mm 2 mps 675 mmHg 66%
    03:00 +8°C° 0 mm 2 mps 675 mmHg 66%
    04:00 +8°C° 0 mm 2 mps 675 mmHg 67%
    05:00 +8°C° 0 mm 2 mps 675 mmHg 67%
    06:00 +8°C° 0 mm 2 mps 675 mmHg 67%
    07:00 +9°C° 0 mm 2 mps 676 mmHg 61%
    08:00 +12°C° 0 mm 2 mps 676 mmHg 55%
    09:00 +14°C° 0 mm 2 mps 677 mmHg 48%
    10:00 +14°C° 0 mm 3 mps 677 mmHg 44%
    11:00 +16°C° 0 mm 3 mps 677 mmHg 41%
    12:00 +17°C° 0 mm 3 mps 677 mmHg 37%
    13:00 +17°C° 0 mm 3 mps 677 mmHg 37%
    14:00 +17°C° 0 mm 3 mps 677 mmHg 37%
    15:00 +17°C° 0 mm 3 mps 677 mmHg 38%
    16:00 +15°C° 0 mm 2 mps 676 mmHg 43%
    17:00 +13°C° 0 mm 2 mps 676 mmHg 47%
    18:00 +12°C° 0 mm 2 mps 676 mmHg 52%
    19:00 +12°C° 0 mm 2 mps 676 mmHg 52%
    20:00 +11°C° 0 mm 1 mps 677 mmHg 52%
    21:00 +11°C° 0 mm 1 mps 677 mmHg 52%
    22:00 +11°C° 0 mm 1 mps 677 mmHg 53%
    23:00 +10°C° 0 mm 1 mps 677 mmHg 54%
    Mostrar más